MOUNT RAINIER
GEOLOGY & WEATHER
Hello guest! [ Log In ]
Peak Flows at USGS Stations near Mount Rainier

Peak Flows at USGS Stations near Mount Rainier

Right now this page only displays the following stations/situations:
12082500 - Nisqually River near National, WA (Peaks > 2,600 cfs and/or annual peak) (WY's 1942-present)
12094000 - Carbon River near Fairfax, WA (Peaks > 1,800 cfs and/or annual peak) (WY's 1930-1978, 1991-present)
Note: A peak flow time of 12:01 indicates the high for that day, and not the exact time it occurred during that day.
Flood Recurrence Intervals are calculated only from annual peak floods for available periods.
The "Link Events" column attempts to show flood peaks on the Nisqually and Carbon within 24 hrs of each other (i.e., the same storm)

Show only annual flood peak

416 peak flows listed below (221 for Nisqually; 195 for Carbon)...

Gage Water Year Date/Time Flow, CFS Recurrence Interval Rank 24, 48, and 72 hr Precip (in) Precip Recorded At Snow Depth Is WY Peak? Link Events
Carbon River 1930 1930-02-05 00:01 1,770 0.74 192 of 195 0.12 | 0.30 | 0.47 Longmire -- true  
Carbon River 1931 1931-03-31 00:01 2,950 1.13 113 of 195 4.25 | 6.05 | 6.05 Longmire -- true  
Carbon River 1932 1932-02-26 00:01 5,500 2.83 37 of 195 1.75 | 3.20 | 3.69 Longmire -- true  
Carbon River 1933 1932-11-13 00:01 7,100 5.01 23 of 195 2.68 | 5.24 | 5.24 Longmire -- true  
Carbon River 1934 1933-10-09 00:01 11,000 20.27 6 of 195 -- | -- | -- No Precip Data -- true  
Carbon River 1935 1934-10-25 00:01 6,500 4.05 28 of 195 2.05 | 3.28 | 5.18 Longmire -- true  
Carbon River 1936 1936-10-07 00:01 2,550 0.98 139 of 195 -- | -- | -- No Precip Data -- true  
Carbon River 1937 1937-04-14 00:01 1,810 0.75 190 of 195 1.81 | 3.21 | 3.64 Longmire -- true  
Carbon River 1938 1938-04-18 00:01 5,560 2.89 35 of 195 0.06 | 3.66 | 4.47 Longmire -- true  
Carbon River 1939 1938-12-07 00:01 2,640 1.02 129 of 195 2.30 | 2.62 | 3.28 Longmire -- true  
Carbon River 1940 1940-05-01 00:01 1,810 0.75 190 of 195 0.35 | 1.06 | 1.48 Longmire -- true  
Carbon River 1941 1940-11-29 00:01 4,040 1.68 72 of 195 0.96 | 2.83 | 4.17 Longmire -- true  
Carbon River 1942 1941-12-19 00:01 2,580 0.99 136 of 195 3.05 | 3.98 | 4.52 Longmire -- true  
Carbon River 1943 1942-11-23 00:01 4,760 2.17 54 of 195 2.75 | 3.35 | 3.75 Longmire -- true  
Nisqually River 1943 1942-11-23 00:01 7,500 2.66 47 of 221 2.75 | 3.35 | 3.75 Longmire -- true
Carbon River 1944 1943-12-03 00:01 5,020 2.38 45 of 195 3.25 | 3.84 | 4.16 Longmire -- true  
Nisqually River 1944 1943-12-03 00:01 4,830 1.40 102 of 221 3.25 | 3.84 | 4.16 Longmire -- true
Carbon River 1945 1945-01-07 00:01 4,370 1.89 62 of 195 2.54 | 4.58 | 5.24 Longmire -- true  
Nisqually River 1945 1945-01-07 00:01 5,280 1.56 89 of 221 2.54 | 4.58 | 5.24 Longmire -- true
Carbon River 1946 1945-12-28 00:01 4,500 1.98 58 of 195 3.02 | 3.89 | 4.36 Longmire -- true  
Nisqually River 1946 1945-12-28 00:01 5,000 1.45 97 of 221 3.02 | 3.89 | 4.36 Longmire -- true
Carbon River 1947 1946-12-11 00:01 5,960 3.33 33 of 195 6.11 | 7.54 | 8.68 Longmire -- true  
Nisqually River 1947 1946-12-11 00:01 8,100 3.07 37 of 221 6.11 | 7.54 | 8.68 Longmire -- true
Carbon River 1948 1947-11-07 00:01 4,330 1.86 64 of 195 3.20 | 3.91 | 4.69 Longmire -- true  
Nisqually River 1948 1947-11-08 00:01 5,560 1.66 78 of 221 1.30 | 4.50 | 5.21 Longmire -- true
Carbon River 1949 1948-11-23 00:01 2,440 0.95 149 of 195 1.33 | 1.58 | 1.64 Carbon 63 true  
Nisqually River 1949 1949-05-13 00:01 3,010 0.90 180 of 221 0.00 | 0.00 | 0.00 Longmire -- true  
Carbon River 1950 1949-11-27 00:01 3,750 1.51 77 of 195 0.35 | 0.35 | 0.35 Carbon -- true  
Nisqually River 1950 1949-11-27 00:01 7,310 2.54 51 of 221 2.70 | 3.72 | 4.62 Longmire -- true
Carbon River 1951 1951-02-09 00:01 4,770 2.18 53 of 195 1.92 | 2.77 | 3.60 Carbon 149 true  
Nisqually River 1951 1951-02-11 00:01 6,050 1.87 67 of 221 2.05 | 3.00 | 6.05 Paradise 157 true  
Carbon River 1952 1951-10-03 00:01 2,610 1.00 133 of 195 0.99 | 2.09 | 3.06 Carbon 0 true  
Nisqually River 1952 1952-02-04 00:01 2,700 0.84 211 of 221 1.87 | 2.79 | 2.84 Longmire -- true  
Carbon River 1953 1953-01-31 00:01 4,580 2.03 56 of 195 1.68 | 2.14 | 4.07 Carbon -- true  
Nisqually River 1953 1953-01-31 00:01 4,760 1.37 106 of 221 1.76 | 2.81 | 3.39 Longmire -- true
Carbon River 1954 1953-12-09 00:01 6,860 4.60 26 of 195 4.06 | 4.06 | 4.32 Longmire -- true  
Nisqually River 1954 1953-12-09 00:01 6,640 2.16 61 of 221 4.06 | 4.06 | 4.32 Longmire -- true
Carbon River 1955 1955-02-08 00:01 2,490 0.96 148 of 195 1.51 | 3.04 | 3.58 Paradise 141 true  
Nisqually River 1955 1955-06-10 00:01 3,740 1.07 139 of 221 0.00 | 0.00 | 0.00 Paradise 152 true  
Carbon River 1956 1955-12-11 00:01 6,320 3.79 32 of 195 3.98 | 5.12 | 5.67 Paradise 101 true  
Nisqually River 1956 1955-12-12 00:01 7,470 2.64 48 of 221 1.12 | 5.10 | 6.24 Paradise 99 true
Carbon River 1957 1956-12-10 00:01 5,280 2.61 43 of 195 3.25 | 7.52 | 8.93 Paradise 52 true  
Nisqually River 1957 1957-02-26 00:01 3,680 1.06 143 of 221 1.38 | 3.19 | 5.01 Paradise 153 true  
Carbon River 1958 1957-12-06 00:01 1,610 0.70 193 of 195 2.63 | 2.66 | 2.66 Paradise 56 true  
Nisqually River 1958 1958-04-20 00:01 2,790 0.85 204 of 221 1.47 | 3.54 | 3.86 Paradise 188 true  
Carbon River 1959 1958-11-12 00:01 4,310 1.85 65 of 195 6.21 | 8.95 | 9.44 Paradise 60 true  
Nisqually River 1959 1958-11-12 00:01 5,450 1.62 84 of 221 6.21 | 8.95 | 9.44 Paradise 60 true
Carbon River 1960 1959-11-23 00:01 9,970 14.01 10 of 195 4.88 | 9.55 | 11.72 Paradise 20 true  
Nisqually River 1960 1959-11-23 00:01 10,900 6.02 18 of 221 4.88 | 9.55 | 11.72 Paradise 20 true
Carbon River 1961 1960-11-16 00:01 3,360 1.31 92 of 195 2.43 | 4.03 | 5.38 Paradise 25 true  
Nisqually River 1961 1961-02-21 00:01 4,350 1.24 117 of 221 3.85 | 4.79 | 7.25 Paradise 174 true  
Nisqually River 1962 1962-01-07 00:01 4,350 1.24 117 of 221 2.89 | 4.84 | 5.82 Paradise 99 true  
Carbon River 1962 1962-04-06 00:01 3,430 1.35 87 of 195 3.45 | 3.48 | 3.89 Paradise 147 true  
Carbon River 1963 1962-11-20 00:01 6,460 3.99 31 of 195 1.94 | 4.57 | 4.57 Carbon 12 true  
Nisqually River 1963 1962-11-20 00:01 10,400 5.34 20 of 221 3.45 | 8.57 | 8.70 Paradise 12 true
Carbon River 1964 1964-01-25 00:01 2,550 0.98 139 of 195 2.70 | 4.70 | 4.86 Paradise 196 true  
Nisqually River 1964 1964-01-25 00:01 3,560 1.03 146 of 221 2.70 | 4.70 | 4.86 Paradise 196 true
Carbon River 1965 1965-01-29 00:01 6,800 4.50 27 of 195 4.50 | 7.35 | 9.77 Paradise 156 true  
Nisqually River 1965 1965-01-29 00:01 11,000 6.17 17 of 221 4.50 | 7.35 | 9.77 Paradise 156 true
Carbon River 1966 1966-05-06 00:01 1,580 0.69 194 of 195 0.98 | 0.98 | 0.98 Carbon -- true  
Nisqually River 1966 1966-05-06 00:01 3,080 0.92 175 of 221 0.98 | 0.98 | 0.98 Longmire -- true
Carbon River 1967 1966-10-23 00:01 1,950 0.79 175 of 195 0.18 | 1.26 | 1.94 Carbon 15 true  
Nisqually River 1967 1966-12-13 00:01 5,870 1.79 76 of 221 0.95 | 2.40 | 2.57 Paradise 64 true  
Carbon River 1968 1967-12-25 00:01 7,480 5.75 16 of 195 3.98 | 5.75 | 6.97 Paradise 48 true  
Nisqually River 1968 1967-12-25 00:01 8,070 3.05 38 of 221 3.98 | 5.75 | 6.97 Paradise 48 true
Nisqually River 1969 1969-01-04 00:01 6,620 2.15 62 of 221 1.60 | 2.95 | 3.19 Paradise 150 true  
Carbon River 1969 1969-01-05 00:01 5,390 2.72 39 of 195 2.80 | 4.40 | 5.75 Paradise 154 true
Carbon River 1970 1970-01-18 00:01 2,490 0.96 148 of 195 1.15 | 2.47 | 3.07 Paradise 115 true  
Nisqually River 1970 1970-01-23 00:01 4,350 1.24 117 of 221 0.90 | 0.98 | 1.89 Paradise 100 true  
Carbon River 1971 1970-11-24 00:01 4,850 2.24 51 of 195 0.96 | 2.06 | 2.06 Carbon 42 true  
Nisqually River 1971 1971-01-19 00:01 4,460 1.28 114 of 221 2.42 | 3.34 | 4.36 Paradise 162 true  
Nisqually River 1972 1972-01-20 00:01 7,460 2.63 49 of 221 3.51 | 6.23 | 7.57 Paradise 235 true  
Carbon River 1972 1972-02-28 00:01 3,220 1.25 99 of 195 1.80 | 3.10 | 3.10 Carbon 258 true  
Carbon River 1973 1972-12-21 00:01 5,000 2.36 47 of 195 1.99 | 3.26 | 4.88 Paradise 43 true  
Nisqually River 1973 1972-12-21 00:01 7,700 2.79 43 of 221 1.99 | 3.26 | 4.88 Paradise 43 true
Carbon River 1974 1974-01-15 00:01 7,180 5.16 22 of 195 2.50 | 4.72 | 6.75 Paradise 132 true  
Nisqually River 1974 1974-01-15 00:01 15,000 16.16 6 of 221 2.50 | 4.72 | 6.75 Paradise 132 true
Carbon River 1975 1975-01-18 00:01 7,320 5.43 18 of 195 2.50 | 4.12 | 4.24 Paradise 168 true  
Nisqually River 1975 1975-01-18 00:01 7,660 2.76 44 of 221 2.50 | 4.12 | 4.24 Paradise 168 true
Carbon River 1976 1975-12-01 18:00 7,460 5.70 17 of 195 4.55 | 6.16 | 6.19 Paradise 78 true  
Nisqually River 1976 1975-12-01 21:00 9,420 4.22 22 of 221 4.55 | 6.16 | 6.19 Paradise 78 false
Nisqually River 1976 1975-12-04 04:30 13,200 10.48 11 of 221 0.99 | 4.04 | 9.44 Paradise 69 true  
Nisqually River 1976 1975-12-08 04:30 3,280 0.96 165 of 221 2.35 | 4.25 | 4.25 Paradise 79 false  
Carbon River 1976 1975-12-08 12:00 1,880 0.77 181 of 195 2.35 | 4.25 | 4.25 Paradise 79 false
Nisqually River 1976 1975-12-26 15:30 3,600 1.04 145 of 221 2.82 | 2.82 | 4.94 Paradise 91 false  
Carbon River 1976 1975-12-26 16:00 2,010 0.81 172 of 195 2.82 | 2.82 | 4.94 Paradise 91 false
Nisqually River 1976 1976-01-15 19:00 7,940 2.95 41 of 221 4.27 | 6.77 | 6.97 Paradise 180 false  
Carbon River 1976 1976-01-15 21:00 4,850 2.24 51 of 195 4.27 | 6.77 | 6.97 Paradise 180 false
Carbon River 1977 1977-01-18 17:00 2,150 0.85 160 of 195 1.62 | 3.73 | 3.98 Paradise 26 true  
Nisqually River 1977 1977-09-04 16:45 1,910 0.69 221 of 221 2.79 | 3.04 | 3.04 Paradise 0 true  
Nisqually River 1978 1977-11-02 00:15 3,060 0.91 176 of 221 0.70 | 2.65 | 3.42 Paradise 24 false  
Nisqually River 1978 1977-11-25 22:00 5,900 1.81 74 of 221 2.60 | 3.29 | 3.81 Paradise 50 false  
Carbon River 1978 1977-11-26 02:00 3,550 1.41 81 of 195 1.02 | 3.62 | 4.31 Paradise 46 false
Nisqually River 1978 1977-11-29 06:45 3,320 0.97 160 of 221 3.95 | 6.22 | 6.69 Paradise 52 false  
Carbon River 1978 1977-11-29 09:00 2,900 1.11 117 of 195 3.95 | 6.22 | 6.69 Paradise 52 false
Carbon River 1978 1977-12-01 21:00 10,000 14.17 9 of 195 1.68 | 1.68 | 5.63 Paradise 56 true  
Nisqually River 1978 1977-12-02 11:30 17,100 26.79 3 of 221 7.76 | 9.44 | 9.44 Paradise 53 true
Carbon River 1978 1977-12-06 20:00 1,830 0.76 186 of 195 1.99 | 2.42 | 3.87 Paradise 70 false  
Carbon River 1978 1977-12-11 04:00 1,840 0.76 185 of 195 2.65 | 3.45 | 3.55 Paradise 84 false  
Nisqually River 1978 1977-12-13 17:30 6,880 2.29 57 of 221 1.84 | 2.95 | 5.60 Paradise 90 false  
Carbon River 1978 1977-12-13 21:00 3,100 1.20 107 of 195 1.84 | 2.95 | 5.60 Paradise 90 false
Nisqually River 1979 1979-03-07 07:15 2,790 0.85 204 of 221 0.31 | 1.89 | 3.69 Paradise 148 true  
Nisqually River 1980 1979-12-04 08:15 3,890 1.11 133 of 221 2.06 | 2.52 | 6.00 Paradise 37 false  
Nisqually River 1980 1979-12-15 17:00 4,160 1.19 123 of 221 4.47 | 5.92 | 7.15 Paradise 63 false  
Nisqually River 1980 1979-12-17 23:00 7,050 2.38 53 of 221 1.12 | 1.71 | 6.18 Paradise 58 true  
Nisqually River 1980 1980-02-27 17:00 3,410 0.99 155 of 221 2.80 | 4.74 | 4.75 Paradise 121 false  
Nisqually River 1981 1980-11-08 10:15 3,940 1.13 129 of 221 2.85 | 5.40 | 6.05 Paradise 11 false  
Nisqually River 1981 1980-11-21 19:30 3,250 0.95 169 of 221 1.58 | 1.58 | 1.80 Paradise 23 false  
Nisqually River 1981 1980-12-14 23:45 2,760 0.85 206 of 221 0.35 | 0.35 | 0.87 Paradise 52 false  
Nisqually River 1981 1980-12-22 09:00 4,660 1.34 109 of 221 1.75 | 3.05 | 3.53 Paradise 39 false  
Nisqually River 1981 1980-12-26 06:45 11,600 7.13 13 of 221 3.10 | 5.70 | 6.29 Paradise 39 true  
Nisqually River 1981 1981-02-17 00:45 4,790 1.38 104 of 221 1.75 | 5.07 | 6.12 Paradise 75 false  
Nisqually River 1981 1981-02-19 10:30 5,550 1.66 79 of 221 1.89 | 3.26 | 5.01 Paradise 75 false  
Nisqually River 1981 1981-04-14 02:00 2,970 0.89 186 of 221 0.00 | 0.46 | 1.53 Paradise 142 false  
Nisqually River 1982 1981-12-05 15:30 3,330 0.97 159 of 221 1.97 | 2.18 | 2.34 Paradise 60 false  
Nisqually River 1982 1982-01-24 03:15 7,150 2.44 52 of 221 3.56 | 8.01 | 8.36 Longmire 158 false  
Nisqually River 1982 1982-02-16 10:30 5,910 1.81 72 of 221 1.55 | 1.68 | 3.92 Longmire 188 false  
Nisqually River 1982 1982-02-20 15:45 8,280 3.20 32 of 221 1.89 | 4.06 | 4.40 Paradise 195 true  
Nisqually River 1983 1982-12-03 23:00 8,000 3.00 40 of 221 2.27 | 4.22 | 4.32 Longmire 65 true  
Nisqually River 1983 1983-01-05 14:00 4,290 1.23 120 of 221 3.33 | 4.81 | 6.30 Paradise 112 false  
Nisqually River 1983 1983-01-08 05:15 5,000 1.45 97 of 221 2.28 | 5.44 | 6.48 Paradise 128 false  
Nisqually River 1983 1983-07-13 14:15 3,110 0.92 173 of 221 1.88 | 2.51 | 2.51 Paradise 26 false  
Nisqually River 1984 1983-11-03 22:45 2,610 0.82 218 of 221 2.46 | 3.56 | 3.56 Paradise 0 false  
Nisqually River 1984 1983-11-17 05:30 2,970 0.89 186 of 221 1.54 | 2.96 | 5.11 Paradise 53 false  
Nisqually River 1984 1984-01-03 23:30 7,650 2.75 45 of 221 3.12 | 4.29 | 4.34 Paradise 94 false  
Nisqually River 1984 1984-01-25 05:15 8,020 3.01 39 of 221 2.98 | 8.61 | 9.53 Paradise 115 true  
Nisqually River 1985 1985-06-07 13:45 5,380 1.59 85 of 221 2.70 | 3.00 | 3.10 Paradise 96 true  
Nisqually River 1986 1985-10-25 05:15 4,610 1.32 111 of 221 0.73 | 1.31 | 2.11 Paradise 7 false  
Nisqually River 1986 1986-01-19 03:00 4,200 1.20 121 of 221 2.17 | 3.84 | 5.14 Paradise 83 false  
Nisqually River 1986 1986-02-23 22:00 8,180 3.13 35 of 221 2.59 | 4.09 | 4.27 Paradise 136 true  
Nisqually River 1987 1986-11-24 07:45 9,830 4.65 21 of 221 5.49 | 7.89 | 10.43 Paradise 53 true  
Nisqually River 1987 1987-02-01 08:45 5,080 1.48 93 of 221 1.70 | 2.35 | 2.68 Paradise 128 false  
Nisqually River 1987 1987-03-03 23:30 5,040 1.47 95 of 221 2.03 | 2.62 | 3.30 Longmire -- false  
Nisqually River 1988 1987-12-09 22:45 9,200 4.00 23 of 221 1.45 | 1.58 | 2.83 Paradise 65 true  
Nisqually River 1988 1988-04-06 18:00 3,030 0.91 178 of 221 1.49 | 1.80 | 2.76 Paradise 184 false  
Nisqually River 1988 1988-05-13 03:30 2,850 0.87 197 of 221 0.90 | 0.90 | 0.90 Paradise 140 false  
Nisqually River 1989 1988-10-16 14:00 3,980 1.14 127 of 221 3.55 | 5.93 | 7.29 Paradise 0 true  
Nisqually River 1989 1988-11-05 23:00 3,910 1.12 130 of 221 1.10 | 3.92 | 6.13 Paradise 12 false  
Nisqually River 1990 1989-11-09 13:00 5,930 1.82 70 of 221 3.52 | 3.62 | 6.32 Paradise 8 false  
Nisqually River 1990 1989-11-12 05:00 3,030 0.91 178 of 221 1.31 | 1.63 | 2.16 Paradise 8 false  
Nisqually River 1990 1989-12-04 16:30 8,780 3.61 25 of 221 3.00 | 4.36 | 4.36 Paradise 18 false  
Nisqually River 1990 1990-01-09 15:45 14,500 14.33 7 of 221 3.14 | 5.28 | 7.09 Paradise 58 true  
Nisqually River 1991 1990-11-09 21:15 3,900 1.12 131 of 221 1.60 | 1.75 | 2.85 Paradise 13 false  
Carbon River 1991 1990-11-24 00:01 13,000 41.48 2 of 195 5.72 | 6.54 | 10.43 Paradise 37 true  
Nisqually River 1991 1990-11-24 20:30 11,000 6.17 17 of 221 5.72 | 6.54 | 10.43 Paradise 37 true
Nisqually River 1991 1991-02-02 00:15 5,540 1.66 80 of 221 0.97 | 1.25 | 1.84 Paradise 120 false  
Nisqually River 1991 1991-02-05 08:00 2,680 0.83 212 of 221 0.30 | 1.37 | 2.52 Paradise 120 false  
Nisqually River 1991 1991-02-14 02:00 2,620 0.82 216 of 221 1.53 | 3.35 | 4.70 Paradise 122 false  
Nisqually River 1991 1991-04-05 08:30 6,900 2.30 56 of 221 3.63 | 5.91 | 6.54 Paradise 200 false  
Carbon River 1992 1991-11-05 09:15 2,830 1.09 118 of 195 3.55 | 4.78 | 4.78 Paradise 12 false  
Nisqually River 1992 1991-11-05 11:45 2,850 0.87 197 of 221 3.55 | 4.78 | 4.78 Paradise 12 false
Carbon River 1992 1991-11-25 06:00 3,520 1.39 82 of 195 3.02 | 3.79 | 3.79 Paradise 48 true  
Nisqually River 1992 1991-11-25 07:45 3,000 0.90 182 of 221 3.02 | 3.79 | 3.79 Paradise 48 false
Carbon River 1992 1991-12-05 22:15 2,300 0.90 153 of 195 0.98 | 1.61 | 2.56 Paradise 58 false  
Nisqually River 1992 1991-12-06 00:30 2,730 0.84 208 of 221 1.56 | 2.54 | 3.17 Paradise 61 false
Nisqually River 1992 1992-01-28 10:00 3,410 0.99 155 of 221 2.50 | 3.00 | 3.29 Paradise 132 true  
Carbon River 1992 1992-01-28 12:00 1,800 0.75 191 of 195 2.50 | 3.00 | 3.29 Paradise 132 false
Carbon River 1993 1993-01-25 14:00 3,280 1.28 97 of 195 3.80 | 5.29 | 5.76 Paradise 127 true  
Nisqually River 1993 1993-03-23 06:30 3,440 1.00 151 of 221 2.60 | 2.88 | 3.13 Paradise 120 true  
Carbon River 1994 1994-03-03 00:01 1,100 0.58 195 of 195 1.26 | 1.42 | 1.69 Paradise 145 true  
Nisqually River 1994 1994-03-03 16:15 2,090 0.72 220 of 221 1.26 | 1.42 | 1.69 Paradise 145 true
Nisqually River 1995 1994-10-27 11:45 2,710 0.84 209 of 221 3.18 | 4.35 | 4.35 Paradise 13 false  
Carbon River 1995 1994-10-27 12:00 2,240 0.88 156 of 195 3.18 | 4.35 | 4.35 Paradise 13 false
Carbon River 1995 1994-10-31 16:45 4,900 2.28 49 of 195 2.85 | 3.25 | 3.95 Paradise 31 true  
Nisqually River 1995 1994-10-31 18:00 3,780 1.08 137 of 221 2.85 | 3.25 | 3.95 Paradise 31 false
Carbon River 1995 1994-11-30 15:00 3,610 1.44 79 of 195 4.16 | 5.66 | 6.90 Paradise 124 false  
Nisqually River 1995 1994-11-30 19:45 5,180 1.52 91 of 221 4.16 | 5.66 | 6.90 Paradise 124 false
Nisqually River 1995 1994-12-20 11:30 6,790 2.24 58 of 221 3.70 | 7.30 | 7.63 Paradise 129 false  
Carbon River 1995 1994-12-20 19:30 2,150 0.85 160 of 195 3.70 | 7.30 | 7.63 Paradise 129 false
Carbon River 1995 1994-12-27 03:45 3,440 1.35 85 of 195 1.85 | 4.50 | 4.56 Paradise 142 false  
Nisqually River 1995 1994-12-27 09:00 5,990 1.85 68 of 221 1.85 | 4.50 | 4.56 Paradise 142 false
Carbon River 1995 1995-01-31 20:15 3,100 1.20 107 of 195 2.10 | 3.66 | 6.13 Paradise 147 false  
Nisqually River 1995 1995-01-31 21:00 7,340 2.56 50 of 221 2.10 | 3.66 | 6.13 Paradise 147 true
Carbon River 1995 1995-02-19 20:15 4,420 1.92 61 of 195 3.75 | 4.39 | 6.52 Paradise 156 false  
Nisqually River 1995 1995-02-19 21:30 5,920 1.82 71 of 221 3.75 | 4.39 | 6.52 Paradise 156 false
Carbon River 1996 1995-10-03 21:15 1,810 0.75 190 of 195 1.69 | 2.43 | 2.62 Longmire 0 false  
Carbon River 1996 1995-10-10 07:00 3,190 1.24 100 of 195 2.02 | 2.05 | 2.18 Paradise 0 false  
Nisqually River 1996 1995-11-08 17:15 7,500 2.66 47 of 221 2.95 | 5.67 | 6.32 Paradise 5 false  
Carbon River 1996 1995-11-08 17:30 5,650 2.98 34 of 195 2.95 | 5.67 | 6.32 Paradise 5 false
Carbon River 1996 1995-11-11 07:30 5,370 2.70 40 of 195 4.00 | 4.30 | 5.86 Paradise 12 false  
Nisqually River 1996 1995-11-11 08:45 6,940 2.32 55 of 221 4.00 | 4.30 | 5.86 Paradise 12 false
Carbon River 1996 1995-11-13 16:00 3,680 1.47 78 of 195 1.57 | 2.03 | 4.52 Longmire -- false  
Nisqually River 1996 1995-11-13 16:15 4,890 1.42 99 of 221 1.57 | 2.03 | 4.52 Longmire -- false
Carbon River 1996 1995-11-23 23:15 1,870 0.77 182 of 195 1.60 | 2.20 | 2.20 Paradise 0 false  
Carbon River 1996 1995-11-25 09:45 2,530 0.98 142 of 195 1.45 | 3.40 | 5.00 Paradise 10 false  
Carbon River 1996 1995-11-28 06:00 10,100 14.68 8 of 195 6.53 | 7.38 | 8.63 Paradise 26 false  
Nisqually River 1996 1995-11-28 07:45 16,000 20.56 5 of 221 6.53 | 7.38 | 8.63 Paradise 26 false
Nisqually River 1996 1995-12-11 06:30 3,010 0.90 180 of 221 2.54 | 3.94 | 4.45 Paradise 40 false  
Nisqually River 1996 1995-12-13 02:00 3,860 1.11 135 of 221 1.60 | 2.39 | 4.93 Paradise 48 false  
Nisqually River 1996 1995-12-14 15:15 3,000 0.90 182 of 221 1.26 | 2.86 | 3.65 Paradise 64 false  
Carbon River 1996 1995-12-31 09:15 2,680 1.03 128 of 195 2.09 | 3.27 | 4.89 Paradise 60 false  
Carbon River 1996 1996-01-03 09:30 1,860 0.77 183 of 195 1.05 | 1.55 | 1.58 Longmire -- false  
Carbon River 1996 1996-01-07 08:45 4,160 1.75 70 of 195 1.37 | 1.97 | 2.17 Longmire -- false  
Nisqually River 1996 1996-01-07 19:15 4,170 1.19 122 of 221 1.37 | 1.97 | 2.17 Longmire -- false
Carbon River 1996 1996-02-07 06:30 7,270 5.33 21 of 195 3.72 | 6.65 | 6.90 Paradise 124 false  
Nisqually River 1996 1996-02-07 06:30 8,360 3.27 29 of 221 3.72 | 6.65 | 6.90 Paradise 124 false
Nisqually River 1996 1996-02-08 14:00 21,200 71.90 2 of 221 3.20 | 6.92 | 9.85 Paradise 114 true  
Carbon River 1996 1996-02-08 20:15 12,000 28.99 3 of 195 3.20 | 6.92 | 9.85 Paradise 114 true
Nisqually River 1996 1996-04-23 22:45 2,990 0.90 183 of 221 2.48 | 2.64 | 2.64 Paradise 135 false  
Carbon River 1997 1996-10-24 07:15 1,920 0.78 177 of 195 2.12 | 2.23 | 3.64 Paradise 25 false  
Carbon River 1997 1996-10-28 19:30 1,900 0.78 178 of 195 0.00 | 0.00 | 0.00 Paradise 20 false  
Carbon River 1997 1996-11-28 00:00 4,540 2.00 57 of 195 2.30 | 3.32 | 3.32 Longmire -- true  
Nisqually River 1997 1996-11-28 00:30 4,310 1.23 118 of 221 2.30 | 3.32 | 3.32 Longmire -- false
Carbon River 1997 1996-12-30 02:30 3,750 1.51 77 of 195 2.42 | 3.49 | 3.71 Longmire 161 false  
Nisqually River 1997 1996-12-30 10:15 3,960 1.13 128 of 221 2.42 | 3.49 | 3.71 Longmire 161 false
Nisqually River 1997 1997-01-01 03:45 8,210 3.15 33 of 221 2.48 | 3.44 | 5.86 Longmire 144 true  
Carbon River 1997 1997-01-01 04:15 4,440 1.93 60 of 195 2.48 | 3.44 | 5.86 Longmire 144 false
Carbon River 1997 1997-01-17 20:00 1,950 0.79 175 of 195 2.97 | 2.97 | 2.97 Paradise 159 false  
Carbon River 1997 1997-01-30 13:00 1,890 0.78 180 of 195 2.15 | 2.37 | 3.55 Paradise 164 false  
Carbon River 1997 1997-02-14 22:45 2,500 0.97 146 of 195 1.18 | 2.56 | 3.88 Paradise 193 false  
Nisqually River 1997 1997-03-20 00:00 7,890 2.92 42 of 221 0.99 | 4.95 | 5.26 Longmire 235 false  
Carbon River 1997 1997-03-20 01:30 3,280 1.28 97 of 195 0.99 | 4.95 | 5.26 Longmire 235 false
Carbon River 1997 1997-03-31 23:15 2,070 0.83 168 of 195 0.63 | 0.63 | 0.71 Paradise 238 false  
Nisqually River 1997 1997-04-20 09:45 2,940 0.89 188 of 221 1.61 | 2.05 | 2.05 Paradise 230 false  
Nisqually River 1998 1997-10-05 01:15 2,770 0.85 205 of 221 1.40 | 2.85 | 3.90 Paradise 0 false  
Carbon River 1998 1997-10-05 01:45 3,350 1.31 93 of 195 1.40 | 2.85 | 3.90 Paradise 0 false
Nisqually River 1998 1997-10-30 14:00 8,330 3.24 30 of 221 3.10 | 5.40 | 5.40 Paradise 1 true  
Carbon River 1998 1997-10-30 20:00 5,340 2.67 41 of 195 3.10 | 5.40 | 5.40 Paradise 1 true
Carbon River 1999 1998-11-13 20:00 3,420 1.34 88 of 195 2.13 | 2.35 | 2.39 Paradise 10 false  
Nisqually River 1999 1998-11-21 04:00 3,410 0.99 155 of 221 2.67 | 4.72 | 4.72 Paradise 36 false  
Carbon River 1999 1998-11-21 05:45 2,980 1.15 112 of 195 2.67 | 4.72 | 4.72 Paradise 36 false
Nisqually River 1999 1998-11-26 04:30 5,890 1.80 75 of 221 0.50 | 3.48 | 5.51 Paradise 60 false  
Carbon River 1999 1998-11-26 10:30 2,520 0.97 144 of 195 0.50 | 3.48 | 5.51 Paradise 60 false
Nisqually River 1999 1998-12-13 10:45 3,420 0.99 152 of 221 2.25 | 3.55 | 4.35 Paradise 98 false  
Carbon River 1999 1998-12-28 00:15 5,070 2.42 44 of 195 3.90 | 5.03 | 7.94 Paradise 135 false  
Nisqually River 1999 1998-12-28 01:30 3,640 1.05 144 of 221 3.90 | 5.03 | 7.94 Paradise 135 false
Carbon River 1999 1998-12-29 21:45 6,900 4.67 25 of 195 3.35 | 7.25 | 8.38 Paradise 135 true  
Nisqually River 1999 1998-12-29 23:45 6,350 2.01 63 of 221 3.35 | 7.25 | 8.38 Paradise 135 true
Carbon River 1999 1999-01-14 18:45 4,020 1.66 73 of 195 1.76 | 2.26 | 2.38 Paradise 126 false  
Nisqually River 1999 1999-01-14 19:45 3,260 0.96 167 of 221 1.76 | 2.26 | 2.38 Paradise 126 false
Carbon River 1999 1999-03-25 02:45 1,810 0.75 190 of 195 0.18 | 0.18 | 0.34 Longmire 251 false  
Nisqually River 1999 1999-03-28 08:15 2,750 0.85 207 of 221 0.62 | 2.32 | 3.01 Paradise 279 false  
Nisqually River 1999 1999-05-25 01:15 2,920 0.88 189 of 221 0.00 | 0.00 | 0.00 Paradise -- false  
Nisqually River 1999 1999-06-01 00:00 2,850 0.87 197 of 221 0.00 | 0.00 | 0.00 Paradise 204 false  
Nisqually River 1999 1999-06-15 02:45 2,910 0.88 192 of 221 0.00 | 0.00 | 0.00 Longmire -- false  
Carbon River 1999 1999-07-01 01:15 2,100 0.84 165 of 195 0.03 | 0.03 | 0.08 Paradise 150 false  
Carbon River 2000 1999-10-08 20:15 2,680 1.03 128 of 195 0.88 | 0.96 | 1.00 Paradise 0 false  
Nisqually River 2000 1999-11-12 20:15 5,610 1.69 77 of 221 1.41 | 2.23 | 3.60 Paradise 1 false  
Carbon River 2000 1999-11-12 20:45 4,130 1.73 71 of 195 1.41 | 2.23 | 3.60 Paradise 1 false
Nisqually River 2000 1999-11-25 18:15 8,750 3.59 26 of 221 5.80 | 6.30 | 6.72 Paradise 23 true  
Carbon River 2000 1999-11-25 22:00 6,470 4.00 30 of 195 5.80 | 6.30 | 6.72 Paradise 23 true
Nisqually River 2000 1999-12-15 20:15 3,980 1.14 127 of 221 3.40 | 6.03 | 8.00 Paradise 107 false  
Carbon River 2000 1999-12-15 20:45 4,630 2.07 55 of 195 3.40 | 6.03 | 8.00 Paradise 107 false
Carbon River 2000 1999-12-18 00:30 1,940 0.79 176 of 195 1.94 | 1.94 | 4.32 Paradise 101 false  
Nisqually River 2000 2000-09-30 22:30 2,810 0.86 201 of 221 2.95 | 3.16 | 3.16 Paradise 0 false  
Nisqually River 2001 2000-10-01 00:00 2,670 0.83 214 of 221 1.49 | 4.44 | 4.65 Paradise 0 true  
Carbon River 2001 2000-10-01 04:15 4,160 1.75 70 of 195 1.49 | 4.44 | 4.65 Paradise 0 true
Nisqually River 2002 2001-11-14 14:00 4,610 1.32 111 of 221 3.50 | 4.25 | 4.85 Paradise 4 false  
Carbon River 2002 2001-11-14 16:30 3,180 1.23 102 of 195 3.50 | 4.25 | 4.85 Paradise 4 false
Nisqually River 2002 2001-11-22 22:45 2,800 0.86 202 of 221 1.25 | 2.21 | 3.81 Paradise 18 false  
Nisqually River 2002 2001-12-13 22:30 3,260 0.96 167 of 221 3.31 | 3.33 | 4.33 Paradise 107 false  
Carbon River 2002 2001-12-14 00:30 1,850 0.77 184 of 195 2.93 | 6.24 | 6.26 Paradise 116 false
Nisqually River 2002 2001-12-17 01:30 4,840 1.40 101 of 221 1.86 | 5.16 | 5.38 Paradise 137 false  
Carbon River 2002 2001-12-17 02:00 2,200 0.87 158 of 195 1.86 | 5.16 | 5.38 Paradise 137 false
Nisqually River 2002 2002-01-08 00:30 8,630 3.49 27 of 221 2.20 | 6.30 | 6.83 Paradise 102 true  
Carbon River 2002 2002-01-08 01:15 4,200 1.78 68 of 195 2.20 | 6.30 | 6.83 Paradise 102 false
Nisqually River 2002 2002-04-14 04:15 5,470 1.63 83 of 221 1.54 | 2.33 | 2.84 Paradise 198 false  
Carbon River 2002 2002-04-14 07:00 4,330 1.86 64 of 195 1.54 | 2.33 | 2.84 Paradise 198 true
Carbon River 2002 2002-06-29 08:30 2,070 0.83 168 of 195 2.20 | 2.41 | 2.41 Paradise 78 false  
Carbon River 2003 2003-01-26 13:45 3,560 1.41 80 of 195 2.49 | 2.68 | 4.01 Paradise 59 false  
Nisqually River 2003 2003-01-26 14:15 4,110 1.17 125 of 221 2.49 | 2.68 | 4.01 Paradise 59 false
Nisqually River 2003 2003-01-31 09:30 10,800 5.88 19 of 221 5.19 | 7.12 | 7.94 Paradise 69 true  
Carbon River 2003 2003-01-31 10:45 7,310 5.41 19 of 195 5.19 | 7.12 | 7.94 Paradise 69 true
Nisqually River 2003 2003-03-13 01:15 4,660 1.34 109 of 221 1.95 | 2.41 | 2.94 Paradise 142 false  
Carbon River 2003 2003-03-13 03:00 1,890 0.78 180 of 195 1.95 | 2.41 | 2.94 Paradise 142 false
Carbon River 2004 2003-10-21 09:00 2,230 0.88 157 of 195 2.70 | 3.50 | 3.92 Paradise 0 false  
Carbon River 2004 2003-10-28 20:30 2,030 0.82 170 of 195 1.18 | 1.18 | 1.18 Paradise 0 false  
Carbon River 2004 2003-11-29 06:30 3,330 1.30 95 of 195 2.46 | 3.26 | 3.29 Paradise 60 false  
Carbon River 2004 2004-01-29 20:30 3,390 1.33 89 of 195 0.22 | 0.27 | 0.32 DFF -- true  
Nisqually River 2004 2004-01-29 20:30 4,680 1.35 107 of 221 0.22 | 0.27 | 0.32 DFF -- true
Carbon River 2004 2004-05-26 19:10 2,750 1.06 125 of 195 2.02 | 2.04 | 2.04 Paradise 97 false  
Carbon River 2004 2004-08-25 11:00 2,760 1.06 124 of 195 3.31 | 5.35 | 5.71 Paradise 0 false  
Carbon River 2005 2004-11-25 08:00 2,520 0.97 144 of 195 3.45 | 4.36 | 4.98 Paradise 6 false  
Carbon River 2005 2004-12-11 04:45 3,340 1.30 94 of 195 1.71 | 4.13 | 4.97 Paradise 41 false  
Nisqually River 2005 2004-12-11 06:45 5,300 1.56 87 of 221 1.71 | 4.13 | 4.97 Paradise 41 false
Nisqually River 2005 2005-01-18 09:00 8,140 3.10 36 of 221 6.10 | 6.65 | 8.56 Paradise 48 true  
Carbon River 2005 2005-01-18 09:15 7,650 6.11 15 of 195 6.10 | 6.65 | 8.56 Paradise 48 true
Nisqually River 2005 2005-09-30 03:30 3,400 0.99 157 of 221 5.14 | 6.04 | 6.04 Paradise 0 false  
Carbon River 2005 2005-09-30 07:30 4,790 2.19 52 of 195 5.14 | 6.04 | 6.04 Paradise 0 false
Carbon River 2006 2005-12-24 04:15 2,790 1.07 121 of 195 2.73 | 4.24 | 5.54 Paradise 53 false  
Nisqually River 2006 2005-12-24 04:30 6,140 1.91 65 of 221 2.73 | 4.24 | 5.54 Paradise 53 false
Nisqually River 2006 2006-01-10 09:00 7,030 2.37 54 of 221 3.18 | 4.31 | 5.18 Paradise 108 true  
Carbon River 2006 2006-01-10 09:15 3,510 1.39 83 of 195 3.18 | 4.31 | 5.18 Paradise 108 true
Nisqually River 2006 2006-01-17 04:15 3,290 0.96 164 of 221 1.23 | 3.04 | 3.67 Paradise 138 false  
Nisqually River 2006 2006-01-30 11:00 3,680 1.06 143 of 221 2.74 | 3.56 | 4.93 Paradise 168 false  
Carbon River 2006 2006-01-30 13:15 2,600 1.00 134 of 195 2.74 | 3.56 | 4.93 Paradise 168 false
Nisqually River 2006 2006-03-18 00:00 3,290 0.96 164 of 221 0.54 | 0.69 | 1.04 Paradise 209 false  
Nisqually River 2007 2006-11-06 17:20 21,800 83.08 1 of 221 11.30 | 13.08 | 15.69 Paradise 0 true  
Carbon River 2007 2006-11-06 18:00 14,500 70.97 1 of 195 11.30 | 13.08 | 15.69 Paradise 0 true
Nisqually River 2007 2006-11-16 01:00 3,400 0.99 157 of 221 1.50 | 1.61 | 2.82 Paradise 34 false  
Carbon River 2007 2006-11-16 01:15 2,820 1.08 119 of 195 1.50 | 1.61 | 2.82 Paradise 34 false
Nisqually River 2007 2006-12-14 23:30 4,860 1.41 100 of 221 1.92 | 3.63 | 4.68 Paradise 83 false  
Carbon River 2007 2006-12-15 01:30 2,530 0.98 142 of 195 1.65 | 3.57 | 5.28 Paradise 83 false
Carbon River 2007 2007-01-02 22:45 2,630 1.01 130 of 195 0.89 | 1.03 | 1.03 Paradise 97 false  
Carbon River 2007 2007-02-15 20:15 2,920 1.12 115 of 195 2.08 | 2.30 | 2.30 Paradise 125 false  
Nisqually River 2007 2007-03-12 11:15 5,330 1.58 86 of 221 1.40 | 4.71 | 4.98 Paradise 145 false  
Carbon River 2007 2007-03-12 12:15 4,480 1.96 59 of 195 1.40 | 4.71 | 4.98 Paradise 145 false
Carbon River 2007 2007-03-24 22:15 5,420 2.75 38 of 195 3.08 | 4.36 | 4.48 DFF 138 false  
Nisqually River 2007 2007-03-25 01:30 6,660 2.17 60 of 221 2.23 | 5.99 | 6.24 Paradise 142 false
Nisqually River 2008 2007-12-03 18:30 8,470 3.35 28 of 221 3.10 | 4.91 | 5.48 DFF 46 true  
Carbon River 2008 2007-12-04 04:00 2,550 0.98 139 of 195 0.62 | 3.72 | 5.53 DFF 36 false
Nisqually River 2008 2008-03-18 00:45 6,160 1.92 64 of 221 0.09 | 0.33 | 0.57 DFF 196 false  
Carbon River 2008 2008-03-18 06:15 3,130 1.21 103 of 195 0.09 | 0.33 | 0.57 DFF 196 true
Nisqually River 2008 2008-07-30 03:00 3,540 1.02 147 of 221 0.52 | 0.52 | 0.52 Paradise and DFF 28 false  
Carbon River 2009 2008-11-07 09:00 2,540 0.98 140 of 195 2.56 | 3.66 | 4.31 Paradise 0 false  
Carbon River 2009 2008-11-12 15:00 11,700 26.04 4 of 195 6.90 | 8.60 | 8.86 Paradise 3 true  
Nisqually River 2009 2008-11-12 18:30 13,900 12.40 9 of 221 6.90 | 8.60 | 8.86 Paradise 3 true
Carbon River 2009 2009-01-07 14:45 11,600 25.12 5 of 195 4.62 | 7.60 | 8.81 DFF 107 false  
Nisqually River 2009 2009-01-07 22:30 13,400 10.99 10 of 221 4.62 | 7.60 | 8.81 DFF 107 false
Carbon River 2010 2009-10-26 13:30 3,120 1.21 104 of 195 0.00 | 0.00 | 2.60 Paradise and DFF 0 false  
Nisqually River 2010 2009-10-30 08:45 3,470 1.01 149 of 221 5.71 | 5.71 | 5.71 Paradise 4 true  
Carbon River 2010 2009-10-30 10:30 3,180 1.23 102 of 195 5.71 | 5.71 | 5.71 Paradise 4 true
Nisqually River 2010 2009-11-17 08:15 2,970 0.89 186 of 221 2.25 | 2.97 | 3.75 Paradise 48 false  
Nisqually River 2010 2010-06-02 22:45 2,700 0.84 211 of 221 1.05 | 1.13 | 1.33 Paradise 140 false  
Carbon River 2010 2010-06-03 02:00 2,790 1.07 121 of 195 0.32 | 1.37 | 1.45 Paradise 140 false
Nisqually River 2011 2010-11-01 22:15 2,830 0.86 199 of 221 0.13 | 3.73 | 3.74 Paradise 24 false  
Carbon River 2011 2010-11-02 01:30 2,500 0.97 146 of 195 0.24 | 0.37 | 3.97 Paradise 22 false
Nisqually River 2011 2010-11-15 23:15 2,880 0.87 194 of 221 0.21 | 0.86 | 1.41 Paradise 21 false  
Carbon River 2011 2010-11-16 01:15 2,920 1.12 115 of 195 0.20 | 0.90 | 1.50 DFF 0 false
Nisqually River 2011 2010-12-12 22:45 4,480 1.28 113 of 221 4.35 | 4.35 | 4.35 Paradise 81 false  
Carbon River 2011 2010-12-13 05:15 3,040 1.17 108 of 195 4.40 | 4.40 | 4.40 DFF 80 false
Nisqually River 2011 2011-01-13 16:45 2,880 0.87 194 of 221 2.50 | 4.30 | 4.30 DFF 0 false  
Nisqually River 2011 2011-01-16 11:45 9,020 3.83 24 of 221 5.12 | 5.22 | 9.69 Paradise 108 true  
Carbon River 2011 2011-01-16 13:15 7,010 4.86 24 of 195 5.12 | 5.22 | 9.69 Paradise 108 true
Nisqually River 2011 2011-01-21 15:15 3,310 0.97 161 of 221 2.50 | 2.77 | 3.03 Paradise 114 false  
Carbon River 2011 2011-01-21 16:15 2,900 1.11 117 of 195 2.50 | 2.77 | 3.03 Paradise 114 false
Carbon River 2011 2011-03-31 16:15 3,430 1.35 87 of 195 1.98 | 5.23 | 5.75 Paradise 209 false  
Nisqually River 2011 2011-03-31 16:30 4,520 1.30 112 of 221 1.98 | 5.23 | 5.75 Paradise 209 false
Carbon River 2011 2011-04-02 03:30 2,050 0.82 169 of 195 1.09 | 2.66 | 4.64 Paradise 206 false  
Nisqually River 2011 2011-05-15 11:30 3,370 0.98 158 of 221 0.40 | 0.40 | 0.40 DFF 233 false  
Carbon River 2011 2011-05-15 12:45 2,010 0.81 172 of 195 0.40 | 0.40 | 0.40 DFF 233 false
Carbon River 2012 2011-11-23 12:15 1,990 0.80 173 of 195 2.38 | 4.70 | 4.70 Paradise 61 false  
Nisqually River 2012 2011-11-23 13:45 3,680 1.06 143 of 221 2.38 | 4.70 | 4.70 Paradise 61 false
Carbon River 2012 2011-12-29 00:30 3,030 1.17 109 of 195 8.90 | 11.30 | 12.11 Paradise 67 false  
Nisqually River 2012 2011-12-29 01:45 3,080 0.92 175 of 221 8.90 | 11.30 | 12.11 Paradise 67 false
Carbon River 2012 2011-12-30 06:15 3,010 1.16 110 of 195 2.05 | 10.95 | 13.35 Paradise 72 false  
Nisqually River 2012 2011-12-30 06:30 3,300 0.97 162 of 221 2.05 | 10.95 | 13.35 Paradise 72 false
Nisqually River 2012 2012-02-22 09:15 5,260 1.55 90 of 221 0.94 | 5.64 | 6.96 DFF 0 true  
Carbon River 2012 2012-02-22 09:45 4,960 2.33 48 of 195 0.94 | 5.64 | 6.96 DFF 0 true
Carbon River 2012 2012-04-20 15:15 2,130 0.85 162 of 195 2.29 | 2.31 | 2.86 Paradise 202 false  
Nisqually River 2012 2012-04-24 08:30 2,610 0.82 218 of 221 0.05 | 0.05 | 0.05 DFF 184 false  
Carbon River 2013 2012-10-28 03:30 2,770 1.06 123 of 195 3.25 | 3.90 | 4.12 Paradise 6 false  
Nisqually River 2013 2012-10-29 05:00 3,790 1.09 136 of 221 2.70 | 5.95 | 6.60 Paradise 0 true  
Carbon River 2013 2012-10-29 05:30 2,720 1.04 126 of 195 2.70 | 5.95 | 6.60 Paradise 0 false
Nisqually River 2013 2012-10-30 23:15 3,180 0.94 172 of 221 1.35 | 4.05 | 7.30 Paradise 0 false  
Nisqually River 2013 2012-11-19 19:45 3,740 1.07 139 of 221 2.30 | 2.30 | 2.56 Paradise 34 false  
Carbon River 2013 2012-11-23 23:45 2,990 1.15 111 of 195 0.60 | 1.10 | 1.76 Paradise 36 true  
Nisqually River 2013 2013-09-28 23:00 2,820 0.86 200 of 221 2.20 | 2.20 | 2.26 Paradise 0 false  
Carbon River 2013 2013-09-29 00:30 2,780 1.07 122 of 195 2.86 | 5.06 | 5.06 Paradise 0 false
Nisqually River 2013 2013-09-30 15:00 3,700 1.06 140 of 221 3.07 | 5.93 | 8.13 Paradise 10 false  
Carbon River 2013 2013-09-30 22:45 2,080 0.83 166 of 195 3.07 | 5.93 | 8.13 Paradise 10 false
Carbon River 2014 2013-12-01 20:00 5,550 2.88 36 of 195 3.00 | 3.02 | 3.02 Paradise 22 true  
Nisqually River 2014 2013-12-01 22:45 4,770 1.38 105 of 221 3.00 | 3.02 | 3.02 Paradise 22 false
Nisqually River 2014 2014-03-06 02:00 4,930 1.43 98 of 221 3.54 | 3.54 | 5.37 Paradise 151 false  
Carbon River 2014 2014-03-06 04:15 2,370 0.92 151 of 195 3.54 | 3.54 | 5.37 Paradise 151 false
Nisqually River 2014 2014-03-09 09:30 6,090 1.89 66 of 221 2.90 | 2.92 | 3.97 Paradise 155 true  
Carbon River 2014 2014-03-09 10:30 3,830 1.55 75 of 195 2.90 | 2.92 | 3.97 Paradise 155 false
Nisqually River 2015 2014-11-25 13:00 11,500 6.96 14 of 221 3.07 | 6.12 | 7.35 DFF 31 true  
Carbon River 2015 2014-11-25 13:45 9,470 11.72 12 of 195 3.07 | 6.12 | 7.35 DFF 31 true
Nisqually River 2015 2014-11-27 19:45 2,910 0.88 192 of 221 1.17 | 1.52 | 4.59 DFF 28 false  
Nisqually River 2015 2014-11-28 18:45 3,890 1.11 133 of 221 0.03 | 1.20 | 1.55 DFF 29 false  
Carbon River 2015 2014-12-21 05:30 2,280 0.89 154 of 195 3.15 | 4.22 | 5.18 Paradise 42 false  
Carbon River 2015 2015-01-05 11:45 6,490 4.03 29 of 195 2.22 | 4.22 | 4.40 DFF 64 false  
Nisqually River 2015 2015-01-05 12:15 5,520 1.65 81 of 221 2.22 | 4.22 | 4.40 DFF 64 false
Nisqually River 2015 2015-01-18 05:45 2,830 0.86 199 of 221 3.10 | 3.61 | 4.42 Paradise 58 false  
Nisqually River 2015 2015-02-06 17:30 2,960 0.89 187 of 221 2.87 | 3.70 | 4.44 Paradise 57 false  
Nisqually River 2015 2015-02-07 23:45 3,180 0.94 172 of 221 1.20 | 4.07 | 4.90 Paradise 56 false  
Nisqually River 2016 2015-10-31 16:15 8,190 3.14 34 of 221 4.00 | 6.37 | 11.16 Paradise 0 false  
Carbon River 2016 2015-10-31 17:00 9,620 12.36 11 of 195 4.00 | 6.37 | 11.16 Paradise 0 false
Carbon River 2016 2015-11-14 02:30 4,240 1.80 67 of 195 4.80 | 7.60 | 7.60 Paradise 16 false  
Nisqually River 2016 2015-11-14 08:15 5,290 1.56 88 of 221 4.80 | 7.60 | 7.60 Paradise 16 false
Carbon River 2016 2015-11-17 19:30 8,730 8.99 13 of 195 4.49 | 5.50 | 6.60 Paradise 25 false  
Nisqually River 2016 2015-11-17 19:45 13,100 10.23 12 of 221 4.49 | 5.50 | 6.60 Paradise 25 false
Nisqually River 2016 2015-12-09 01:00 16,700 24.33 4 of 221 1.40 | 4.49 | 5.61 Paradise 44 true  
Carbon River 2016 2015-12-09 05:30 10,200 15.22 7 of 195 1.40 | 4.49 | 5.61 Paradise 44 true
Nisqually River 2016 2016-01-28 15:30 3,520 1.02 148 of 221 1.60 | 1.86 | 2.78 Paradise 117 false  
Carbon River 2016 2016-01-28 15:45 2,130 0.85 162 of 195 1.60 | 1.86 | 2.78 Paradise 117 false
Carbon River 2016 2016-02-15 02:15 3,460 1.36 84 of 195 5.98 | 8.78 | 9.43 Paradise 132 false  
Nisqually River 2016 2016-02-15 04:15 4,820 1.39 103 of 221 5.98 | 8.78 | 9.43 Paradise 132 false
Nisqually River 2016 2016-02-18 01:00 2,670 0.83 214 of 221 1.17 | 1.19 | 2.25 Paradise 138 false  
Nisqually River 2017 2016-10-20 15:30 3,870 1.11 134 of 221 2.34 | 2.48 | 4.33 Paradise 11 false  
Carbon River 2017 2016-10-20 16:15 3,230 1.25 98 of 195 2.34 | 2.48 | 4.33 Paradise 11 true
Nisqually River 2017 2017-02-09 16:00 2,910 0.88 192 of 221 2.47 | 4.24 | 4.26 DFF 134 false  
Carbon River 2017 2017-02-09 22:30 3,110 1.20 105 of 195 2.47 | 4.24 | 4.26 DFF 134 false
Carbon River 2017 2017-02-16 04:30 2,100 0.84 165 of 195 0.81 | 3.40 | 3.48 DFF 121 false  
Nisqually River 2017 2017-02-16 09:00 4,110 1.17 125 of 221 0.81 | 3.40 | 3.48 DFF 121 false
Carbon River 2017 2017-03-15 13:45 2,610 1.00 133 of 195 1.17 | 3.76 | 6.96 DFF 148 false  
Nisqually River 2017 2017-03-15 16:15 4,300 1.23 119 of 221 1.17 | 3.76 | 6.96 DFF 148 true
Nisqually River 2017 2017-03-18 14:00 3,250 0.95 169 of 221 1.22 | 2.36 | 2.48 DFF 143 false  
Nisqually River 2018 2017-10-22 03:00 11,400 6.79 15 of 221 1.07 | 5.51 | 6.72 DFF 15 true  
Carbon River 2018 2017-10-22 04:30 7,690 6.19 14 of 195 1.07 | 5.51 | 6.72 DFF 15 true
Carbon River 2018 2017-11-21 23:30 2,580 0.99 136 of 195 1.15 | 4.22 | 6.81 DFF 56 false  
Nisqually River 2018 2017-11-22 01:00 5,900 1.81 74 of 221 1.15 | 4.22 | 6.81 DFF 40 false
Nisqually River 2018 2017-11-23 14:30 8,300 3.22 31 of 221 1.74 | 2.89 | 5.96 DFF 36 false  
Carbon River 2018 2017-11-23 16:00 5,280 2.61 43 of 195 1.74 | 2.89 | 5.96 DFF 36 false
Carbon River 2018 2017-12-29 15:45 4,250 1.81 66 of 195 1.90 | 2.70 | 2.90 Mowich 92 false  
Nisqually River 2018 2017-12-30 00:30 5,510 1.64 82 of 221 0.47 | 1.81 | 4.27 Paradise 92 false
Carbon River 2018 2018-02-04 10:00 5,010 2.37 46 of 195 1.90 | 2.40 | 3.00 Mowich Lake 125 false  
Nisqually River 2018 2018-02-04 11:15 5,110 1.49 92 of 221 1.84 | 3.68 | 4.82 Paradise 125 false
Nisqually River 2019 2018-11-04 09:15 2,110 0.73 219 of 221 0.33 | 0.54 | 0.91 Paradise 4 true  
Carbon River 2019 2018-11-04 09:45 2,250 0.88 155 of 195 0.33 | 0.54 | 0.91 Paradise 4 true
Carbon River 2019 2018-12-29 22:45 2,110 0.84 163 of 195 1.21 | 2.27 | 2.46 Paradise 87 false  
Carbon River 2020 2019-12-20 17:00 2,420 0.94 150 of 195 3.05 | 5.13 | 5.46 Paradise 44 false  
Nisqually River 2020 2019-12-20 23:45 5,970 1.84 69 of 221 3.05 | 5.13 | 5.46 Paradise 44 false
Carbon River 2020 2020-01-01 04:45 3,360 1.31 92 of 195 0.53 | 1.36 | 1.32 Paradise 51 false  
Carbon River 2020 2020-01-07 05:15 2,610 1.00 133 of 195 1.96 | 5.14 | 6.15 Paradise 101 false  
Carbon River 2020 2020-01-23 21:30 2,360 0.92 152 of 195 2.55 | 4.17 | 5.27 Paradise 131 false  
Nisqually River 2020 2020-01-24 04:15 3,180 0.94 172 of 221 2.55 | 4.17 | 5.27 Paradise 131 false
Nisqually River 2020 2020-02-01 13:00 5,070 1.48 94 of 221 1.27 | 3.52 | 4.81 Paradise 132 false  
Carbon River 2020 2020-02-01 13:45 4,000 1.65 74 of 195 1.27 | 3.52 | 4.81 Paradise 132 false
Nisqually River 2020 2020-02-07 01:30 14,200 13.33 8 of 221 3.28 | 7.50 | 10.87 Paradise 165 true  
Carbon River 2020 2020-02-07 01:30 7,300 5.39 20 of 195 3.28 | 7.50 | 10.87 Paradise 165 true
Nisqually River 2020 2020-05-31 01:00 2,660 0.83 215 of 221 0.02 | 1.36 | 1.36 Paradise 119 false  
Nisqually River 2021 2021-01-03 03:00 3,440 1.00 151 of 221 1.06 | 2.61 | 4.04 Paradise 124 false  
Nisqually River 2021 2021-01-13 05:00 6,740 2.21 59 of 221 0.27 | 3.62 | 4.84 Paradise 118 true  
Carbon River 2021 2021-01-13 05:30 3,370 1.32 90 of 195 0.27 | 3.62 | 4.84 Paradise 118 true

Peak Flows by Month:

Month # of Events % of Events Avg Peak Flow - Nisqually Avg Peak Flow - Carbon Max Peak Flow - Nisqually Max Peak Flow - Carbon
January 78 18.75% 3,383 1,934 15,000 11,600
February 44 10.58% 3,513 1,745 21,200 12,000
March 29 6.97% 2,524 1,323 7,890 5,420
April 14 3.37% 2,121 1,379 6,900 5,560
May 10 2.40% 1,789 815 3,370 2,750
June 7 1.68% 2,511 694 5,380 2,790
July 3 0.72% 2,217 700 3,540 2,100
August 1 0.24% -- 2,760 -- 2,760
September 8 1.92% 1,830 1,206 3,700 4,790
October 37 8.89% 1,696 2,505 11,400 11,000
November 95 22.84% 3,155 2,332 21,800 14,500
December 90 21.63% 3,267 1,838 17,100 10,200

Flood recurrence interval calculation:

RI = a * eb * cfs

Where:
RI = Flood recurrence interval, years,
aNisqually = 0.436521199618492000,
bNisqually = 0.000240766230529842,
aCarbon = 0.394483874353413000,
bCarbon = 0.000358101532331527, and
cfs = Peak flow in cubic feet per second

A big thanks to Kurt Spicer and Mark Mastin at the USGS for providing the raw data for this analysis!